Regional Weather Roundup
Issued by NWS State College, PA

Home | Current Version | Previous Version | Text Only | Print | Product List | Glossary Off
Versions: 1 2 3 4 5 6 7 8 9 10 11 12 13 14 15 16 17 18 19 20 21 22 23 24 25 26 27 28 29 30 31 32 33 34 35 36 37 38 39 40 41 42 43 44 45 46 47 48 49 50

000
ASUS41 KCTP 062010
RWRCTP

REGIONAL WEATHER ROUNDUP
NATIONAL WEATHER SERVICE STATE COLLEGE PA
300 PM EST FRI MAR 06 2015

Note: "fair" indicates few or no clouds below 12,000 feet with no
significant weather and/or obstructions to visibility.

* = STATION THAT DOES NOT REPORT PRECIPITATION /E.G. RAIN...SNOW...ETC/
    THUNDER OR FOG.

PAZ002>004-007>009-013>016-020>023-029>032-062100-
WESTERN PENNSYLVANIA

CITY           SKY/WX    TMP DP  RH WIND       PRES   REMARKS
ERIE           MOSUNNY   24   5  44 SW13      30.38F WCI  12
MEADVILLE      SUNNY     21   3  45 SW7       30.32F WCI  12
FRANKLIN*      SUNNY     19   1  45 S8        30.35F WCI   9
NEW CASTLE     FAIR      24   5  44 SW10      30.39F WCI  14
BEAVER COUNTY  SUNNY     23   5  46 S6        30.37F
BUTLER*        SUNNY     21   3  45 W8        30.39F WCI  12
PITTSBURGH INT PTSUNNY   21   7  54 VRB7      30.38F WCI  12
PITTSBURGH     SUNNY     20   5  52 S8        30.38F WCI  10
INDIANA*       SUNNY     19   7  58 W5        30.41F WCI  13
LATROBE        PTSUNNY   19   9  63 SW8       30.42F WCI   9
WASHINGTON CO* SUNNY     21   9  58 S7        30.41F WCI  13
$$

PAZ004>006-010>012-017>019-024>028-033>037-041-042-045-046-049>053-062100-
CENTRAL PENNSYLVANIA

CITY           SKY/WX    TMP DP  RH WIND       PRES   REMARKS
BRADFORD       MIX PCPN  20  -1  40 SW7       30.26F WCI  11
DUBOIS         SUNNY     18   1  47 VRB6      30.31F WCI  10
CLEARFIELD     MIX PCPN  22   4  46 S9        30.33F WCI  12
JOHNSTOWN      SUNNY     19   4  51 SW3       30.28F
ALTOONA        SUNNY     21   1  41 SE5       30.35F WCI  15
STATE COLLEGE  SUNNY     23   1  39 SW8       30.36F WCI  14
WILLIAMSPORT   SUNNY     24   2  38 VRB5      30.42F
SELINSGROVE    SUNNY     22   3  44 SE8       30.45F WCI  12
FT INDIANTOWN  SUNNY     22   3  44 S8        30.45F WCI  12
CAPITAL CITY   SUNNY     21   1  41 SW7       30.47F WCI  12
HARRISBURG     MOSUNNY   21   3  45 NW8       30.47F WCI  11
YORK           SUNNY     20  -5  33 NW3       30.47F
$$

PAZ038>040-043-044-047-048-054-055-060>062-067>071-062100-
EASTERN PENNSYLVANIA

CITY           SKY/WX    TMP DP  RH WIND       PRES   REMARKS
SCRANTON       SUNNY     23   2  40 W7        30.37F WCI  15
MOUNT POCONO   SUNNY     22  -2  35 NW6       30.28F WCI  14
ALLENTOWN      SUNNY     22   4  46 S5        30.44F
QUAKERTOWN*    CLEAR     23   5  46 NW3       30.45F
READING        SUNNY     22   3  44 SW5       30.46F
LANCASTER      SUNNY     20   4  50 W7        30.47F WCI  11
COATESVILLE    CLEAR     19   9  63 W8        30.45F WCI   9
POTTSTOWN      SUNNY     22   3  44 W3        30.47F
BLUE BELL      SUNNY     27  12  54 NW6       30.46F
DOYLESTOWN     SUNNY     23   7  50 NW3       30.44F
WILLOW GROVE   NOT AVBL
NORTH PHILA    SUNNY     27  14  58 VRB3      30.49F
PHILADELPHIA   SUNNY     25   8  48 VRB3      30.49F
$$



USA.gov is the U.S. government's official web portal to all federal, state and local government web resources and services.